Tiempo cada hora Madrid

Hoy, 7 Marzo, Domingo

Tiempo Temperatura Precipitaciones Viento Presión Humedad
00:00 +10°C° 0 mm 1 mps 708 mmHg 80%
01:00 +9°C° 0 mm 1 mps 708 mmHg 81%
02:00 +9°C° 0 mm 1 mps 707 mmHg 82%
03:00 +9°C° 0 mm 1 mps 707 mmHg 82%
04:00 +9°C° 0 mm 1 mps 707 mmHg 81%
05:00 +9°C° 0 mm 1 mps 707 mmHg 79%
06:00 +10°C° 0 mm 1 mps 707 mmHg 78%
07:00 +9°C° 0 mm 2 mps 707 mmHg 75%
08:00 +9°C° 0 mm 2 mps 707 mmHg 73%
09:00 +10°C° 0 mm 2 mps 707 mmHg 70%
10:00 +10°C° 0 mm 2 mps 707 mmHg 67%
11:00 +12°C° 0 mm 2 mps 706 mmHg 65%
12:00 +12°C° 0 mm 3 mps 706 mmHg 62%
13:00 +12°C° 0 mm 3 mps 705 mmHg 60%
14:00 +13°C° 0 mm 3 mps 705 mmHg 58%
15:00 +13°C° 0 mm 3 mps 704 mmHg 56%
16:00 +13°C° 0.1 mm 2 mps 704 mmHg 60%
17:00 +13°C° 0.1 mm 2 mps 704 mmHg 64%
18:00 +12°C° 0.1 mm 2 mps 704 mmHg 68%
19:00 +10°C° 0.3 mm 2 mps 704 mmHg 72%
20:00 +10°C° 0.3 mm 2 mps 704 mmHg 76%
21:00 +9°C° 0.3 mm 3 mps 704 mmHg 79%
22:00 +8°C° 0.1 mm 2 mps 704 mmHg 82%
23:00 +9°C° 0.1 mm 1 mps 704 mmHg 84%

Mañana, 8 Marzo, Lunes

Tiempo Temperatura Precipitaciones Viento Presión Humedad
00:00 +8°C° 0.1 mm 1 mps 704 mmHg 86%
01:00 +8°C° 0.1 mm 1 mps 704 mmHg 87%
02:00 +8°C° 0.1 mm 1 mps 704 mmHg 88%
03:00 +7°C° 0.1 mm 1 mps 703 mmHg 89%
04:00 +7°C° 0 mm 1 mps 703 mmHg 89%
05:00 +6°C° 0 mm 0 mps 703 mmHg 90%
06:00 +5°C° 0 mm 0 mps 703 mmHg 90%
07:00 +7°C° 0 mm 0 mps 704 mmHg 85%
08:00 +8°C° 0 mm 0 mps 704 mmHg 80%
09:00 +10°C° 0 mm 1 mps 704 mmHg 76%
10:00 +11°C° 0.5 mm 1 mps 704 mmHg 68%
11:00 +13°C° 0.5 mm 1 mps 704 mmHg 61%
12:00 +14°C° 0.5 mm 1 mps 704 mmHg 53%
13:00 +14°C° 0.3 mm 1 mps 704 mmHg 51%
14:00 +14°C° 0.3 mm 2 mps 704 mmHg 49%
15:00 +15°C° 0.3 mm 2 mps 703 mmHg 47%
16:00 +13°C° 0.5 mm 3 mps 704 mmHg 53%
17:00 +12°C° 0.5 mm 4 mps 704 mmHg 58%
18:00 +11°C° 0.5 mm 4 mps 704 mmHg 63%
19:00 +9°C° 0.1 mm 5 mps 704 mmHg 65%
20:00 +9°C° 0.1 mm 5 mps 705 mmHg 67%
21:00 +8°C° 0.1 mm 5 mps 706 mmHg 69%
22:00 +7°C° 0.1 mm 5 mps 706 mmHg 70%
23:00 +7°C° 0.1 mm 5 mps 706 mmHg 72%

Pasado mañana, 9 Marzo, Martes

Tiempo Temperatura Precipitaciones Viento Presión Humedad
00:00 +6°C° 0.1 mm 5 mps 706 mmHg 74%
01:00 +6°C° 0.1 mm 5 mps 706 mmHg 72%
02:00 +6°C° 0.1 mm 5 mps 706 mmHg 71%
03:00 +6°C° 0.1 mm 5 mps 707 mmHg 70%
04:00 +6°C° 0.1 mm 5 mps 707 mmHg 71%
05:00 +5°C° 0.1 mm 4 mps 707 mmHg 72%
06:00 +5°C° 0.1 mm 4 mps 707 mmHg 73%
07:00 +5°C° 0 mm 4 mps 707 mmHg 71%
08:00 +6°C° 0 mm 4 mps 707 mmHg 69%
09:00 +6°C° 0 mm 4 mps 708 mmHg 67%
10:00 +8°C° 0 mm 3 mps 708 mmHg 63%
11:00 +9°C° 0 mm 3 mps 708 mmHg 59%
12:00 +10°C° 0 mm 2 mps 708 mmHg 55%
13:00 +12°C° 0 mm 2 mps 708 mmHg 53%
14:00 +13°C° 0 mm 1 mps 707 mmHg 50%
15:00 +13°C° 0 mm 1 mps 707 mmHg 48%
16:00 +13°C° 0 mm 1 mps 707 mmHg 50%
17:00 +12°C° 0 mm 1 mps 707 mmHg 53%
18:00 +12°C° 0 mm 1 mps 707 mmHg 55%
19:00 +11°C° 0 mm 1 mps 707 mmHg 57%
20:00 +10°C° 0 mm 1 mps 708 mmHg 60%
21:00 +8°C° 0 mm 2 mps 709 mmHg 62%
22:00 +8°C° 0 mm 2 mps 709 mmHg 63%
23:00 +8°C° 0 mm 1 mps 709 mmHg 64%

10 Marzo, Miércoles

Tiempo Temperatura Precipitaciones Viento Presión Humedad
00:00 +8°C° 0 mm 1 mps 709 mmHg 65%
01:00 +7°C° 0 mm 1 mps 709 mmHg 65%
02:00 +7°C° 0 mm 1 mps 709 mmHg 65%
03:00 +6°C° 0 mm 1 mps 709 mmHg 66%
04:00 +6°C° 0 mm 1 mps 709 mmHg 66%
05:00 +6°C° 0 mm 1 mps 709 mmHg 67%
06:00 +5°C° 0 mm 1 mps 709 mmHg 68%
07:00 +7°C° 0 mm 1 mps 710 mmHg 62%
08:00 +7°C° 0 mm 0 mps 710 mmHg 57%
09:00 +9°C° 0 mm 0 mps 711 mmHg 52%
10:00 +11°C° 0 mm 1 mps 711 mmHg 48%
11:00 +13°C° 0 mm 1 mps 711 mmHg 44%
12:00 +14°C° 0 mm 2 mps 711 mmHg 40%
13:00 +15°C° 0 mm 2 mps 710 mmHg 39%
14:00 +15°C° 0 mm 2 mps 710 mmHg 37%
15:00 +16°C° 0 mm 3 mps 710 mmHg 36%
16:00 +14°C° 0 mm 3 mps 710 mmHg 40%
17:00 +13°C° 0 mm 3 mps 710 mmHg 45%
18:00 +13°C° 0 mm 3 mps 710 mmHg 49%
19:00 +13°C° 0 mm 2 mps 710 mmHg 53%
20:00 +12°C° 0 mm 2 mps 711 mmHg 56%
21:00 +10°C° 0 mm 2 mps 711 mmHg 60%
22:00 +10°C° 0 mm 2 mps 711 mmHg 62%
23:00 +9°C° 0 mm 2 mps 712 mmHg 63%

11 Marzo, Jueves

Tiempo Temperatura Precipitaciones Viento Presión Humedad
00:00 +9°C° 0 mm 2 mps 712 mmHg 65%
01:00 +9°C° 0 mm 2 mps 712 mmHg 66%
02:00 +9°C° 0 mm 1 mps 711 mmHg 68%
03:00 +9°C° 0 mm 1 mps 711 mmHg 69%
04:00 +9°C° 0 mm 1 mps 711 mmHg 70%
05:00 +8°C° 0 mm 1 mps 711 mmHg 72%
06:00 +8°C° 0 mm 1 mps 711 mmHg 73%
07:00 +9°C° 0 mm 1 mps 711 mmHg 69%
08:00 +10°C° 0 mm 1 mps 712 mmHg 65%
09:00 +11°C° 0 mm 1 mps 712 mmHg 61%
10:00 +13°C° 0 mm 2 mps 712 mmHg 56%
11:00 +14°C° 0 mm 2 mps 712 mmHg 51%
12:00 +16°C° 0 mm 3 mps 711 mmHg 46%
13:00 +17°C° 0 mm 3 mps 711 mmHg 44%
14:00 +18°C° 0 mm 3 mps 710 mmHg 42%
15:00 +19°C° 0 mm 4 mps 710 mmHg 39%
16:00 +17°C° 0 mm 4 mps 710 mmHg 45%
17:00 +15°C° 0 mm 4 mps 710 mmHg 50%
18:00 +14°C° 0 mm 3 mps 709 mmHg 55%
19:00 +13°C° 0 mm 3 mps 710 mmHg 60%
20:00 +12°C° 0 mm 3 mps 710 mmHg 65%
21:00 +12°C° 0 mm 3 mps 710 mmHg 70%
22:00 +12°C° 0 mm 2 mps 710 mmHg 72%
23:00 +12°C° 0 mm 2 mps 710 mmHg 74%

12 Marzo, Viernes

Tiempo Temperatura Precipitaciones Viento Presión Humedad
00:00 +10°C° 0 mm 2 mps 710 mmHg 76%
01:00 +10°C° 0 mm 2 mps 709 mmHg 77%
02:00 +10°C° 0 mm 1 mps 709 mmHg 79%
03:00 +10°C° 0 mm 1 mps 709 mmHg 80%
04:00 +9°C° 0 mm 1 mps 709 mmHg 81%
05:00 +9°C° 0 mm 1 mps 709 mmHg 83%
06:00 +9°C° 0 mm 1 mps 708 mmHg 84%
07:00 +10°C° 0 mm 1 mps 709 mmHg 78%
08:00 +10°C° 0 mm 0 mps 709 mmHg 73%
09:00 +11°C° 0 mm 0 mps 709 mmHg 67%
10:00 +13°C° 0 mm 1 mps 709 mmHg 64%
11:00 +14°C° 0 mm 1 mps 709 mmHg 60%
12:00 +15°C° 0 mm 2 mps 708 mmHg 57%
13:00 +16°C° 0 mm 3 mps 708 mmHg 56%
14:00 +16°C° 0 mm 3 mps 707 mmHg 55%
15:00 +17°C° 0 mm 4 mps 707 mmHg 54%
16:00 +15°C° 0 mm 4 mps 706 mmHg 57%
17:00 +14°C° 0 mm 4 mps 706 mmHg 60%
18:00 +13°C° 0 mm 4 mps 706 mmHg 63%
19:00 +12°C° 0 mm 3 mps 706 mmHg 64%
20:00 +11°C° 0 mm 3 mps 707 mmHg 64%
21:00 +11°C° 0 mm 3 mps 707 mmHg 65%
22:00 +10°C° 0 mm 3 mps 707 mmHg 65%
23:00 +9°C° 0 mm 3 mps 707 mmHg 66%
Mostrar más

Necesitamos Su Consentimiento

Meteoprog y nuestros Proveedores de Servicios pueden almacenar y acceder a sus datos personales como cookies, identificadores de dispositivo u otras tecnologías similares de su dispositivo y procesar dichos datos para personalizar contenido y anuncios, además de ofrecer funciones de redes sociales y analizar el tráfico.

  • Almacenar y/o acceder a información en su dispositivo

    Se puede almacenar o acceder a cookies, identificadores de dispositivo u otra información de su dispositivo para los fines anteriormente indicados.

  • Anuncios y contenido personalizados, medición de anuncios y contenido, percepciones del público, y desarrollo de productos

    Los anuncios y el contenido pueden personalizarse en base a su perfil. Se pueden añadir más datos para personalizar mejor los anuncios y contenidos. Se puede medir el rendimiento de los anuncios y contenidos. Se puede obtener la percepción sobre el público que ha visto los anuncios y contenidos. Dichos datos pueden usarse para desarrollar o mejorar la experiencia del usuario, sistemas y software.

Al hacer clic en ‘Estoy De Acuerdo’ usted permitirá el uso de las cookies, identificadores de dispositivo, balizas web u otras tecnologías similares indicadas. Su configuración puede cambiarse desde el navegador de su dispositivo.

Para ciertos fines, los intereses legítimos pueden ser considerados por encima del consentimiento. Puede leer más sobre ello en nuestra Política de Privacidad y Cookies.